Tracking 19625 objects as of 26-May-2019
HD Live streaming from Space Station
objects crossing your sky now
Watch Starlink satellites crossing your sky!

SCOUT B-1 DEB

Track SCOUT B-1 DEB now!
10-day predictions


NORAD ID: 6284
Int'l Code: 1972-069D
Perigee: 660.1 km
Apogee: 723.1 km
Inclination: 90.4 °
Period: 98.4 minutes
Semi major axis: 7062 km
RCS: 0.034 m2 (small)
Launch date: September 2, 1972
Source: United States (US)
Launch site: AIR FORCE WESTERN TEST RANGE (AFWTR)

Note: This is SATELLITE DEBRIS
aabbcc
Your satellite tracking list
Your tracking list is empty




NASA's NSSDC Master Catalog

Two Line Element Set (TLE):
1  6284U 72069D   19145.87095074 +.00000190 +00000-0 +34491-4 0  9999
2  6284 090.4401 199.4476 0044626 212.2846 147.5636 14.62700602370445
Source of the keplerian elements: AFSPC